Вернуться в каталог

DODECAPOLE 2 DEB

АктивенPO
NORAD 41734·DEBRIS·🇺🇸 United States

Запущен Aug 13, 1965 с Vandenberg Space Force Base

Loading…

Ближайшие Пролёты (ближайшие 24 часа)

TLE

СвежийSource: Space-Track

Эпоха: Sep 13, 2026, 20:37 UTC

1 41734U 65065U   26256.85949661  .00004347  00000-0  19348-2 0  9995
2 41734  90.0472  23.2415 0033312 179.1207 181.0049 14.22474075548926

Отслеживайте DODECAPOLE 2 DEB в реальном времени с AllMySat

Download on the App Store